Location: Владивосток
(43.1151°N, 131.8856°E)
Time: 07:04:02
(UTC+10:00)

EO-88 - Pass Details

Date: 06 July 2022
Orbit: 453 x 461 km, 97.3° (Epoch: 13 August)

Event Time Altitude Azimuth Distance (km) Brightness Sun altitude
Exits shadow 23:00:34 26° 203° (SSW) 959 ? -17.1°
Maximum altitude 23:02:10 45° 261° (W) 650 ? -17.3°
Drops below altitude 10° 23:05:32 10° 335° (NNW) 1,629 ? -17.6°
Sets 23:07:39 0° 342° (NNW) 2,508 ? -17.8°
